Content
SEND FEEDBACK

Daily
Averages
Monthly
Summary
United States of America

BRACKETVILLE, TEXAS


Home > North America > United States > Texas
Elevation: 1690 feet     Latitude: 29 41N     Longitude: 100 25W

WEATHER
 
SELECT A DAY
Number of Records: 223,180;   Date Range: 11/11/04 - 7/23/14
 
SHARE

PRINT THIS DATA

[ ← Previous Day ]
WEATHER ALMANAC - FEBRUARY 13, 2013
[ Next Day → ]
[ °C ]   °F
Weather ElementAverageHighLow
Temperature47.2 °F62.6 °F (4:55 pm)33.8 °F (5:15 am)
Dewpoint22 °F32 °F (8:35 am)12.2 °F (4:35 pm)
Humidity45.7 %87 % (5:15 am)15 % (4:35 pm)
Barometer30.10 in30.17 in (9:15 am)30.03 in (3:55 pm)
Wind Speed3.5 mph10.4 mph (3:55 pm)
Weather ElementAverage
Visibility10 mi
Wind DirectionSSE (165.3 °)

Weather ElementTotal
Precipitation---
Heating Degree Days16.8 (Base 65)
Averaged from 68 records on February 13, 2013
WEATHER CONDITIONS BREAKOUT
WIND DIRECTION BREAKOUT
WEATHER BY HOUR - FEBRUARY 13, 2013
[ °C ]   °F
Local TimeTemperatureDewpointHumidityBarometerVisibilityWind DirectionWind SpeedGust SpeedPrecipitationEventsConditions
12:35 AM39.2 °F30.2 °F70 %30.11 in10.0 miNorth (350°)9.2 mphClear
1:15 AM39.2 °F30.2 °F70 %30.10 in10.0 miNNW (340°)9.2 mphClear
1:35 AM39.2 °F30.2 °F70 %30.11 in10.0 miNorth (360°)8.1 mphClear
1:55 AM37.4 °F30.2 °F75 %30.12 in10.0 miNorth (10°)4.6 mphClear
2:15 AM37.4 °F30.2 °F75 %30.13 in10.0 miNorth (10°)4.6 mphClear
2:35 AM37.4 °F30.2 °F75 %30.12 in10.0 miCalmClear
2:55 AM37.4 °F30.2 °F75 %30.12 in10.0 miNorth (350°)4.6 mphClear
3:15 AM37.4 °F30.2 °F75 %30.12 in10.0 miNorth (350°)5.8 mphClear
3:35 AM35.6 °F30.2 °F81 %30.12 in10.0 miNorth (360°)6.9 mphClear
3:55 AM35.6 °F30.2 °F81 %30.12 in10.0 miNorth (360°)5.8 mphClear
4:15 AM35.6 °F30.2 °F81 %30.12 in10.0 miNorth (10°)5.8 mphClear
4:35 AM35.6 °F30.2 °F81 %30.11 in10.0 miNorth (360°)6.9 mphClear
4:55 AM35.6 °F30.2 °F81 %30.11 in10.0 miNorth (10°)5.8 mphClear
5:15 AM33.8 °F30.2 °F87 %30.11 in10.0 miNorth (360°)6.9 mphClear
5:35 AM33.8 °F30.2 °F87 %30.12 in10.0 miCalmClear
5:55 AM33.8 °F30.2 °F87 %30.12 in10.0 miCalmClear
6:15 AM33.8 °F30.2 °F87 %30.12 in10.0 miNorth (360°)4.6 mphClear
6:35 AM33.8 °F30.2 °F87 %30.13 in10.0 miCalmClear
6:55 AM33.8 °F30.2 °F87 %30.14 in10.0 miNorth (360°)5.8 mphClear
7:15 AM33.8 °F30.2 °F87 %30.14 in10.0 miNorth (350°)3.5 mphClear
7:35 AM33.8 °F30.2 °F87 %30.15 in10.0 miNorth (350°)5.8 mphClear
7:55 AM33.8 °F30.2 °F87 %30.15 in10.0 miNNW (340°)6.9 mphClear
8:15 AM35.6 °F30.2 °F81 %30.16 in10.0 miNNW (340°)3.5 mphClear
8:35 AM37.4 °F32.0 °F81 %30.16 in10.0 miNorth (360°)5.8 mphClear
8:55 AM39.2 °F32.0 °F75 %30.16 in10.0 miNNW (340°)5.8 mphClear
9:15 AM42.8 °F30.2 °F61 %30.17 in10.0 miNNW (340°)8.1 mphClear
9:35 AM44.6 °F30.2 °F57 %30.17 in10.0 miNNW (340°)8.1 mphClear
10:15 AM46.4 °F30.2 °F53 %30.17 in10.0 miNNW (340°)8.1 mphClear
10:35 AM48.2 °F28.4 °F46 %30.17 in10.0 miNorth (350°)9.2 mphClear
10:55 AM50.0 °F28.4 °F43 %30.16 in10.0 miNorth (350°)8.1 mphClear
11:15 AM51.8 °F26.6 °F38 %30.16 in10.0 miNNW (330°)5.8 mphClear
11:35 AM53.6 °F23.0 °F30 %30.16 inNNW (340°)5.8 mphClear
11:55 AM53.6 °F23.0 °F30 %30.15 in10.0 miCalmClear
12:15 PM55.4 °F19.4 °F25 %30.14 in10.0 miNNW (340°)5.8 mphClear
12:35 PM55.4 °F19.4 °F25 %30.14 in10.0 miWNW (300°)4.6 mphClear
12:55 PM57.2 °F19.4 °F23 %30.13 in10.0 miNW (310°)5.8 mphClear
1:15 PM57.2 °F17.6 °F21 %30.12 in10.0 miCalmClear
1:35 PM57.2 °F14.0 °F18 %30.10 in10.0 miCalmClear
1:55 PM59.0 °F15.8 °F19 %30.09 in10.0 miWest (280°)6.9 mphClear
2:15 PM57.2 °F14.0 °F18 %30.07 in10.0 miWest (280°)6.9 mphClear
2:35 PM59.0 °F14.0 °F17 %30.06 inNNW (330°)4.6 mphClear
2:55 PM60.8 °F15.8 °F17 %30.06 in10.0 miCalmClear
3:15 PM60.8 °F15.8 °F17 %30.05 in10.0 miNW (320°)5.8 mphClear
3:35 PM60.8 °F14.0 °F16 %30.04 in10.0 miCalmClear
3:55 PM60.8 °F14.0 °F16 %30.03 in10.0 miWest (280°)10.4 mphClear
4:15 PM60.8 °F14.0 °F16 %30.03 in10.0 miCalmClear
4:35 PM60.8 °F12.2 °F15 %30.03 in10.0 miCalmClear
4:55 PM62.6 °F14.0 °F15 %30.03 in10.0 miCalmClear
5:15 PM60.8 °F12.2 °F15 %30.03 in10.0 miWest (270°)4.6 mphClear
5:35 PM60.8 °F12.2 °F15 %30.03 in10.0 miCalmClear
5:55 PM60.8 °F12.2 °F15 %30.03 in10.0 miCalmClear
6:15 PM60.8 °F14.0 °F16 %30.03 in10.0 miCalmClear
6:35 PM57.2 °F15.8 °F20 %30.03 in10.0 miCalmClear
6:55 PM53.6 °F14.0 °F21 %30.04 in10.0 miCalmClear
7:15 PM51.8 °F14.0 °F22 %30.04 in10.0 miCalmClear
7:35 PM51.8 °F14.0 °F22 %30.04 in10.0 miCalmClear
7:55 PM50.0 °F14.0 °F24 %30.05 in10.0 miCalmClear
8:15 PM50.0 °F14.0 °F24 %30.06 in10.0 miCalmClear
8:35 PM48.2 °F14.0 °F25 %30.06 in10.0 miCalmClear
8:55 PM48.2 °F14.0 °F25 %30.06 in10.0 miCalmClear
9:15 PM48.2 °F14.0 °F25 %30.07 in10.0 miCalmClear
9:35 PM50.0 °F14.0 °F24 %30.08 in10.0 miCalmClear
10:15 PM48.2 °F14.0 °F25 %30.08 in10.0 miCalmClear
10:35 PM48.2 °F14.0 °F25 %30.08 in10.0 miCalmClear
10:55 PM46.4 °F14.0 °F27 %30.08 in10.0 miCalmClear
11:15 PM46.4 °F14.0 °F27 %30.08 in10.0 miCalmClear
11:35 PM46.4 °F17.6 °F32 %30.08 in10.0 miESE (110°)3.5 mphClear
11:55 PM44.6 °F17.6 °F34 %30.08 in10.0 miCalmClear
Hourly data recorded from KECU, located miles away from Bracketville, Texas







STORIES FROM OUR PARTNERS